Tracking 29892 objects as of 21-Nov-2024
HD Live streaming from Space Station
objects crossing your sky now

COSMOS 2251 DEB

Track COSMOS 2251 DEB now!
10-day predictions


NORAD ID: 34588
Int'l Code: 1993-036WA
Perigee: 752.5 km
Apogee: 777.2 km
Inclination: 74.0 °
Period: 100.0 minutes
Semi major axis: 7135 km
RCS: 0.0483 m2 (small)
Launch date: June 16, 1993
Source: Commonwealth of Independent States (former USSR) (CIS)
Launch site: PLESETSK MISSILE AND SPACE COMPLEX (PKMTR)

Note: This is SATELLITE DEBRIS
Your satellite tracking list
Your tracking list is empty




NASA's NSSDC Master Catalog

Two Line Element Set (TLE):
1 34588U 93036WA  24325.29581749  .00002794  00000-0  88924-3 0  9996
2 34588  74.0439 265.2841 0017286  54.8013 106.5447 14.40243391823685
Source of the keplerian elements: AFSPC